[[{"header":{"parameterUnit":"m.s-1","parameterCategory":1,"la1":30.2991,"la2":30.254,"lo1":-89.0895,"lo2":-89.0444,"dy":0.0017,"dx":0.0017,"nx":28,"ny":28,"refTime":"2023-08-13T03:00:00:Z","depth":0,"parameterNumber":2,"parameterNumberName":"U-component_of_WINDS"},"data":[0,0,0,0,0,0,0,0,0,0,0,0,0,0,0,0,0,0,0,0,0,0,0,0,0,0,0,0,0,0,0,0,0,0,0,0,0,0,0,0,0,0,0,0,0,0,0,0,0,0,0,0,0,0,0,0,0,0,0.6638,0.6639,0,0.6784,0.6786,0.6787,0.6844,0.6843,0.6843,0.6842,0.6991,0.6995,0.7,0,0,0,0,0,0,0,0,0,0,0,0,0,0.6404,0.6408,0.6637,0.6639,0.6641,0.6784,0.6786,0.6788,0.6844,0.6843,0.6843,0.6842,0.699,0.6995,0.7,0,0,0,0,0,0,0,0,0,0,0,0,0,0.6523,0.6409,0.6637,0.6686,0.6692,0.6783,0.6786,0.6788,0.6844,0.6843,0.6843,0.6842,0.6988,0.6994,0.7001,0.7054,0,0,0.7021,0.7024,0,0,0,0,0,0,0,0,0.6517,0.6532,0.6677,0.6683,0.669,0.6795,0.6758,0.6877,0.6844,0.6786,0.6842,0.6842,0.6926,0.6938,0.6967,0.7061,0.7067,0.7021,0.7025,0.7028,0.703,0,0,0,0,0,0,0,0.6508,0.6526,0.6695,0.6679,0.6687,0.67,0.6717,0.6781,0.6858,0.6791,0.6796,0.6812,0.693,0.696,0.6971,0.7069,0.7021,0.7027,0.7031,0.7034,0.7213,0.7214,0,0,0,0,0,0,0.6492,0.6519,0.6691,0.67,0.66,0.6705,0.6723,0.6762,0.6857,0.6871,0.6813,0.6814,0.6949,0.6963,0.6976,0.7044,0.7028,0.7034,0.7038,0.7212,0.7213,0.7214,0,0,0,0,0,0,0.6487,0.6507,0.6685,0.6611,0.6634,0.671,0.6753,0.6765,0.6796,0.6874,0.6887,0.683,0.6949,0.6967,0.7034,0.705,0.7037,0.7043,0.7211,0.7213,0.7214,0.718,0,0,0,0,0,0,0.648,0.6505,0.6526,0.6611,0.6638,0.6741,0.6754,0.6768,0.6807,0.6811,0.6894,0.6907,0.695,0.7024,0.704,0.7059,0.7048,0.721,0.7212,0.7213,0.718,0.718,0.718,0,0,0,0,0,0.6471,0.651,0.6527,0.6547,0.6666,0.6741,0.6757,0.6807,0.6808,0.683,0.688,0.6904,0.7045,0.703,0.7049,0.707,0.721,0.7212,0.7213,0.718,0.718,0.718,0,0,0,0,0,0,0.6425,0.6522,0.6542,0.6609,0.6667,0.6751,0.678,0.6805,0.6863,0.6864,0.6923,0.6941,0.7003,0.7043,0.7025,0.7126,0.7129,0.7135,0.7097,0.7098,0.7098,0.7087,0.7054,0,0,0,0,0,0.6423,0.6476,0.6558,0.661,0.6638,0.6704,0.6738,0.6772,0.6833,0.6858,0.6913,0.6971,0.7029,0.7066,0.7123,0.7186,0.7205,0.7209,0.7209,0.7209,0.7213,0.7249,0.7252,0.7221,0.7221,0.7221,0,0,0.6418,0.6478,0.6508,0.6602,0.6651,0.6704,0.6724,0.678,0.682,0.6866,0.6933,0.6975,0.7044,0.7109,0.7141,0.7145,0.7226,0.7211,0.721,0.7215,0.7251,0.7254,0.7257,0.7222,0.7222,0.7222,0,0,0.6438,0.6489,0.6537,0.6586,0.6659,0.6702,0.6714,0.6794,0.6824,0.6892,0.6928,0.6976,0.7074,0.7122,0.7159,0.7196,0.722,0.7213,0.7213,0.7247,0.7249,0.7252,0.7265,0.7269,0.7217,0.7217,0.7217,0,0.6423,0.6506,0.6559,0.6613,0.6653,0.6698,0.6747,0.6791,0.6879,0.6905,0.6908,0.7032,0.7082,0.7158,0.7167,0.7196,0.721,0.7204,0.7245,0.7248,0.7251,0.7264,0.7268,0.7216,0.7216,0.7216,0.7216,0,0.6484,0.6541,0.6571,0.6655,0.6699,0.675,0.681,0.6847,0.6877,0.6919,0.6987,0.7049,0.7119,0.714,0.7169,0.722,0.722,0.7233,0.7238,0.7251,0.7265,0.727,0.7214,0.7214,0.7214,0.7215,0,0,0.6479,0.6592,0.6602,0.664,0.6724,0.6769,0.6822,0.6891,0.6921,0.698,0.7026,0.7107,0.712,0.7162,0.7197,0.7227,0.7252,0.7236,0.7239,0.7237,0.7312,0.7301,0.7306,0.7268,0.7269,0.727,0.7306,0,0.6509,0.6607,0.6656,0.6732,0.6784,0.6827,0.6873,0.6929,0.6971,0.7021,0.7066,0.7123,0.7135,0.7161,0.7193,0.7242,0.7267,0.724,0.7311,0.7313,0.7292,0.7313,0.7303,0.7333,0.7311,0.7312,0.7313,0,0.6558,0.6617,0.6698,0.6776,0.68,0.684,0.6907,0.6955,0.7019,0.7047,0.7093,0.7127,0.7184,0.7184,0.7263,0.7243,0.7275,0.7303,0.7306,0.7314,0.7313,0.7322,0.7344,0.7348,0.7321,0.7321,0.732,0,0.6545,0.6645,0.6707,0.6738,0.683,0.6858,0.6897,0.6961,0.6999,0.7057,0.7083,0.7147,0.7182,0.723,0.728,0.7276,0.7354,0.7358,0.7378,0.7377,0.7392,0.7391,0.742,0.7413,0.7413,0.7413,0.7413,0,0.6574,0.6622,0.6702,0.674,0.6795,0.685,0.6903,0.6945,0.7001,0.7048,0.7089,0.7131,0.7195,0.7245,0.7284,0.7343,0.7359,0.7382,0.7392,0.7379,0.7376,0.74,0.74,0.7414,0.7414,0.7413,0.7413,0,0.6569,0.6625,0.6695,0.6776,0.6798,0.6835,0.6904,0.6942,0.6985,0.7043,0.706,0.7128,0.7189,0.7244,0.7325,0.7351,0.7411,0.7424,0.7389,0.7395,0.7411,0.7409,0.7457,0.7466,0.7453,0.7453,0.7453,0,0.6584,0.6622,0.6708,0.6742,0.6781,0.6836,0.6875,0.6931,0.697,0.7045,0.7074,0.7138,0.7193,0.7288,0.7344,0.7406,0.742,0.7433,0.743,0.7415,0.742,0.7417,0.7421,0.7432,0.7432,0.7432,0.7432,0,0.6604,0.663,0.6685,0.6751,0.6797,0.685,0.6905,0.6931,0.6997,0.7038,0.7102,0.7144,0.7227,0.729,0.7358,0.7398,0.7426,0.7433,0.744,0.7427,0.7406,0.7417,0.7388,0.7431,0.7431,0.7431,0.7431,0.7432,0.661,0.6645,0.6711,0.6772,0.6819,0.6869,0.6909,0.6957,0.7011,0.7083,0.7113,0.7177,0.7239,0.7334,0.7374,0.7424,0.743,0.7441,0.7444,0.7446,0.7443,0.7397,0.7437,0.7437,0.7437,0.7437,0.7437,0,0.6631,0.6676,0.6731,0.6807,0.6854,0.6877,0.6939,0.6977,0.7033,0.7089,0.7142,0.7214,0.7276,0.7336,0.74,0.7429,0.7444,0.7444,0.7443,0.7451,0.7435,0.7422,0.7432,0.7432,0.7432,0.7432,0.7432,0.7432,0.6648,0.671,0.6743,0.6828,0.6873,0.6936,0.697,0.7016,0.7061,0.714,0.7192,0.7231,0.7289,0.7358,0.7415,0.7431,0.7453,0.745,0.7469,0.7453,0.7453,0.7452,0.744,0.7454,0.7454,0.7482,0.7482,0.7482]},{"header":{"parameterUnit":"m.s-1","parameterCategory":1,"la1":30.2991,"la2":30.254,"lo1":-89.0895,"lo2":-89.0444,"dy":0.0017,"dx":0.0017,"nx":28,"ny":28,"refTime":"2023-08-13T03:00:00:Z","depth":0,"parameterNumber":3,"parameterNumberName":"V-component_of_WINDS"},"data":[0,0,0,0,0,0,0,0,0,0,0,0,0,0,0,0,0,0,0,0,0,0,0,0,0,0,0,0,0,0,0,0,0,0,0,0,0,0,0,0,0,0,0,0,0,0,0,0,0,0,0,0,0,0,0,0,0,0,5.5241,5.5241,0,5.519,5.5189,5.5188,5.5103,5.5101,5.51,5.5098,5.5045,5.5045,5.5046,0,0,0,0,0,0,0,0,0,0,0,0,0,5.5266,5.5266,5.5241,5.5241,5.524,5.519,5.5189,5.5188,5.5103,5.5101,5.5099,5.5097,5.5045,5.5045,5.5046,0,0,0,0,0,0,0,0,0,0,0,0,0,5.5239,5.5266,5.5241,5.5191,5.5186,5.519,5.5189,5.5188,5.5103,5.5101,5.5099,5.5096,5.5045,5.5045,5.5046,5.5094,0,0,5.5046,5.5046,0,0,0,0,0,0,0,0,5.5241,5.5238,5.5199,5.5195,5.5189,5.515,5.5178,5.5157,5.5104,5.5135,5.5098,5.5095,5.5082,5.5079,5.5075,5.5091,5.5089,5.5046,5.5046,5.5046,5.5046,0,0,0,0,0,0,0,5.5243,5.524,5.5221,5.5199,5.5193,5.5172,5.5165,5.5174,5.5123,5.5132,5.5126,5.5121,5.5079,5.5075,5.5073,5.5088,5.5046,5.5046,5.5046,5.5046,5.5141,5.5144,0,0,0,0,0,0,5.5252,5.5242,5.5222,5.5219,5.521,5.5173,5.5166,5.5165,5.5122,5.5113,5.5123,5.5117,5.5076,5.5073,5.5071,5.5124,5.5046,5.5046,5.5046,5.5139,5.5142,5.5145,0,0,0,0,0,0,5.5253,5.5251,5.5224,5.5229,5.5224,5.5175,5.5175,5.5165,5.5161,5.5115,5.5106,5.5128,5.5074,5.507,5.5089,5.5121,5.5046,5.5046,5.5136,5.514,5.5143,5.5231,0,0,0,0,0,0,5.5254,5.5252,5.527,5.523,5.5224,5.5244,5.5177,5.5166,5.5161,5.5153,5.5117,5.5109,5.5072,5.5089,5.5089,5.5119,5.5046,5.5133,5.5138,5.5142,5.5225,5.5237,5.5248,0,0,0,0,0,5.5255,5.5297,5.5271,5.5269,5.5245,5.5246,5.5242,5.5198,5.5164,5.5182,5.5152,5.511,5.5117,5.5091,5.5091,5.5122,5.5131,5.5136,5.5142,5.522,5.5235,5.5247,0,0,0,0,0,0,5.5341,5.529,5.5261,5.5291,5.5274,5.5231,5.5252,5.5215,5.5207,5.5199,5.5145,5.5137,5.5163,5.5144,5.5116,5.5166,5.5117,5.5123,5.5177,5.5191,5.5202,5.5206,5.5047,0,0,0,0,0,5.5364,5.5368,5.5324,5.5354,5.5347,5.5301,5.53,5.5267,5.5246,5.5238,5.521,5.5192,5.5189,5.5189,5.5185,5.5222,5.5213,5.5243,5.5254,5.5264,5.5269,5.5287,5.53,5.5163,5.5163,5.5163,0,0,5.541,5.5383,5.5389,5.5371,5.5353,5.5359,5.5295,5.5304,5.5308,5.524,5.5255,5.5234,5.5209,5.5237,5.5248,5.5222,5.5305,5.5271,5.5279,5.5279,5.5294,5.5307,5.5318,5.5167,5.5166,5.5165,0,0,5.5498,5.5478,5.5501,5.5484,5.5458,5.5428,5.5434,5.5397,5.538,5.5394,5.5343,5.5347,5.5345,5.5329,5.5321,5.5403,5.5364,5.5403,5.5462,5.548,5.5491,5.55,5.5529,5.554,5.5409,5.5409,5.5409,0,5.5559,5.5565,5.5517,5.5529,5.5523,5.5461,5.5484,5.5471,5.5445,5.5442,5.5413,5.5409,5.5388,5.5411,5.5431,5.5427,5.5431,5.5407,5.5493,5.5502,5.551,5.5536,5.5547,5.5414,5.5413,5.5413,5.5412,0,5.5641,5.5647,5.5668,5.5645,5.5641,5.5658,5.5613,5.5615,5.5583,5.5555,5.557,5.5544,5.5532,5.5535,5.5505,5.5554,5.5539,5.5503,5.5453,5.5529,5.5553,5.5562,5.5421,5.5419,5.5418,5.5416,0,0,5.5781,5.5731,5.5739,5.5728,5.5695,5.5698,5.5713,5.5702,5.5704,5.5688,5.5699,5.5698,5.5665,5.5656,5.5622,5.5638,5.5704,5.56,5.5598,5.5619,5.5756,5.5783,5.5796,5.5678,5.568,5.5681,5.5758,0,5.5861,5.5883,5.5841,5.5873,5.5877,5.5819,5.5832,5.5813,5.5788,5.5787,5.5759,5.5759,5.5715,5.5709,5.5722,5.5693,5.573,5.5687,5.5687,5.5687,5.5694,5.5808,5.5837,5.591,5.5767,5.5769,5.577,0,5.5957,5.5946,5.5979,5.5944,5.5944,5.5956,5.5942,5.5943,5.592,5.5901,5.5891,5.5852,5.5863,5.5816,5.5831,5.5802,5.58,5.5786,5.5787,5.5785,5.5733,5.5808,5.5933,5.5944,5.5784,5.5783,5.5782,0,5.6055,5.6049,5.6067,5.6059,5.6018,5.6028,5.6012,5.5987,5.5983,5.5971,5.5968,5.5958,5.5952,5.5945,5.5904,5.5873,5.5924,5.5873,5.5907,5.5909,5.592,5.592,5.6045,5.592,5.592,5.592,5.5919,0,5.6149,5.6171,5.611,5.6122,5.6145,5.6096,5.612,5.6098,5.6076,5.6082,5.6031,5.6038,5.5984,5.5984,5.5952,5.5969,5.5967,5.5951,5.5943,5.5956,5.5958,5.5953,5.5946,5.5923,5.5922,5.5921,5.5921,0,5.6262,5.6222,5.6238,5.6199,5.6189,5.6208,5.6174,5.6183,5.6154,5.6162,5.6161,5.6117,5.6115,5.6073,5.6063,5.6041,5.6071,5.6053,5.6079,5.6072,5.6109,5.6106,5.6235,5.6249,5.6116,5.6117,5.6118,0,5.6323,5.6339,5.6301,5.6301,5.6287,5.6289,5.6284,5.6237,5.6234,5.621,5.6221,5.6215,5.6208,5.6207,5.6174,5.6165,5.6146,5.6192,5.6144,5.6157,5.6146,5.6145,5.6146,5.6202,5.6203,5.6205,5.6206,0,5.6437,5.6417,5.6413,5.6402,5.6398,5.6387,5.6373,5.6376,5.6324,5.6324,5.6321,5.6315,5.6304,5.6299,5.6284,5.6266,5.6228,5.6221,5.6229,5.6242,5.6256,5.6248,5.6105,5.6218,5.6217,5.6216,5.6216,5.6215,5.6526,5.6537,5.6512,5.6509,5.6493,5.6481,5.6487,5.646,5.6457,5.6444,5.6416,5.6418,5.6394,5.637,5.6356,5.6357,5.6333,5.6344,5.6347,5.635,5.6357,5.6257,5.6354,5.6354,5.6353,5.6353,5.6353,0,5.6637,5.6618,5.6615,5.6597,5.6595,5.6558,5.6541,5.6541,5.6543,5.6525,5.6518,5.6515,5.6509,5.6476,5.6466,5.6473,5.6454,5.6472,5.647,5.6467,5.6379,5.6373,5.6486,5.6486,5.6486,5.6486,5.6486,5.6486,5.6694,5.671,5.6687,5.6696,5.6676,5.6678,5.6671,5.6659,5.6644,5.6643,5.6638,5.6616,5.6591,5.6579,5.6572,5.6562,5.656,5.6583,5.6568,5.6486,5.6473,5.6461,5.6455,5.6584,5.6584,5.6655,5.6656,5.6656]}]]